Location: Aufkirchen
(47.9603°N, 11.3653°E)
Time: 14:47:36
(UTC+01:00)

Envisat - Visible Passes

Search period start: 09 December 2021 00:00
Search period end: 19 December 2021 00:00
Orbit: 764 x 766 km, 98.2° (Epoch: 08 December)

Date Brightness Start Highest point End Pass type
(mag) Time Alt. Az. Time Alt. Az. Time Alt. Az.
09 Dec 3.4 05:07:01 10° NNE 05:12:04 61° E 05:17:05 10° S visible
09 Dec 4.1 06:46:52 10° NNW 06:50:40 22° WNW 06:54:26 10° WSW visible
09 Dec 6.5 18:09:28 10° W 18:09:55 10° W 18:10:22 10° W visible
10 Dec 4.8 04:30:33 10° NNE 04:35:00 30° E 04:39:25 10° SSE visible
10 Dec 3.3 06:09:22 10° N 06:14:07 41° WNW 06:18:50 10° SW visible
10 Dec 5.7 17:28:39 10° SW 17:32:32 22° W 17:36:27 10° NW visible
11 Dec 5.8 03:54:57 10° NE 03:57:44 15° E 04:00:29 10° ESE visible
11 Dec 2.8 05:32:17 10° NNE 05:37:24 82° WNW 05:42:28 10° SSW visible
11 Dec 4.6 07:13:03 10° NNW 07:15:37 14° NW 07:18:11 10° W visible
11 Dec 4.4 16:50:33 10° S 16:55:23 44° W 17:00:16 10° NNW visible
12 Dec 3.8 04:55:31 10° NNE 05:00:28 49° E 05:05:22 10° S visible
12 Dec 3.9 06:35:04 10° N 06:39:13 26° WNW 06:43:21 10° WSW visible
12 Dec 6.1 17:55:50 10° WSW 17:58:10 13° W 18:00:32 10° WNW visible
13 Dec 5.1 04:19:14 10° NE 04:23:20 24° E 04:27:25 10° SE visible
13 Dec 3.1 05:57:43 10° N 06:02:37 50° WNW 06:07:30 10° SW visible
13 Dec 5.3 17:16:36 10° SSW 17:20:52 27° W 17:25:11 10° NW visible
14 Dec 6.0 03:44:21 10° ENE 03:46:00 11° E 03:47:38 10° ESE visible
14 Dec 3.0 05:20:43 10° NNE 05:25:50 81° ESE 05:30:55 10° SSW visible
14 Dec 4.4 07:01:02 10° NNW 07:04:14 17° WNW 07:07:24 10° W visible
15 Dec 4.2 04:44:04 10° NNE 04:48:51 39° E 04:53:35 10° SSE visible
15 Dec 3.7 06:23:18 10° N 06:27:46 31° WNW 06:32:11 10° SW visible
15 Dec 5.9 17:43:17 10° SW 17:46:27 17° W 17:49:39 10° NW visible
16 Dec 5.4 04:08:01 10° NE 04:11:40 19° E 04:15:17 10° SE visible
16 Dec 2.9 05:46:05 10° N 05:51:07 62° WNW 05:56:06 10° SSW visible
16 Dec 4.9 17:04:39 10° SSW 17:09:13 33° W 17:13:49 10° NNW visible
17 Dec 3.3 05:09:11 10° NNE 05:14:15 66° ESE 05:19:18 10° S visible
17 Dec 4.2 06:49:08 10° NNW 06:52:48 20° WNW 06:56:28 10° WSW visible
18 Dec 4.6 04:32:40 10° NNE 04:37:12 32° E 04:41:43 10° SSE visible
18 Dec 3.4 06:11:36 10° N 06:16:17 38° WNW 06:20:56 10° SW visible
18 Dec 5.8 17:31:01 10° SW 17:34:45 21° W 17:38:31 10° NW visible
